Location: Newark
(43.4306°N, 0.3089°E)
Time: 00:20:47
(UTC+00:00)

SR - Pass Details

Date: 27 August 2019
Orbit: 576 x 880 km, 66.7° (Epoch: 19 September)

Event Time Altitude Azimuth Distance (km) Brightness Sun altitude
Rises 21:08:16 0° 318° (NW) 3,326 ? -23.9°
Reaches altitude 10° 21:10:56 10° 308° (NW) 2,433 ? -24.2°
Maximum altitude 21:15:42 29° 250° (WSW) 1,531 ? -24.8°
Enters shadow 21:18:24 20° 209° (SSW) 1,894 ? -25.2°
